Weather History for Fairbanks, AK

Change the Weather History Date:

Friday, September 20, 2013

  Actual Average Record
Temperature  
Mean Temperature 30 °F 43 °F  
Max Temperature 36 °F 53 °F 73 °F (1995)
Min Temperature 24 °F 33 °F 14 °F (1947)
Degree Days  
Heating Degree Days 35 22  
Month to date heating degree days 366 354  
Since 1 July heating degree days 625 743  
Cooling Degree Days 0 0  
Month to date cooling degree days 0 0  
Year to date cooling degree days 226 61  
Moisture  
Dew Point 24 °F    
Average Humidity 79    
Maximum Humidity 89    
Minimum Humidity 56    
Precipitation  
Precipitation T in 0.03 in 0.56 in (1942)
Month to date precipitation 1.66 0.80  
Year to date precipitation 7.46 8.37  
Snow  
Snow T in 0.00 in 0.50 in (1989)
Month to date snowfall 0.6 0.7  
Since 1 July snowfall 0.6 0.7  
Since 1 September snowfall 0.6 0.7  
Snow Depth 0.00 in    
Sea Level Pressure  
Sea Level Pressure 29.45 in    
Wind  
Wind Speed 2 mph (ENE)    
Max Wind Speed 7 mph    
Max Gust Speed -    
Visibility 8 miles    
Events Fog , Snow    
T = Trace of Precipitation, MM = Missing Value Source: NWS Daily Summary

Daily Weather History Graph

Daily Weather History Graph

Search for Another Location

Airport:

Trip Planner

Search our weather history database for the weather conditions in past years. The results will help you decide how hot, cold, wet, or windy it might be!

Date:

Astronomy

Sep. 20, 2013 Rise Set
Actual Time 7:29 AM AKDT 7:58 PM AKDT
Civil Twilight 6:40 AM AKDT 8:47 PM AKDT
Nautical Twilight 5:39 AM AKDT 9:47 PM AKDT
Astronomical Twilight 4:27 AM AKDT 10:58 PM AKDT
Moon 7:41 PM AKDT (9/20) 9:42 AM AKDT (9/20)
Length of Visible Light 14h 06m
Length of Day
12h 28m
Full, 98% of the Moon is Illuminated
Sep 20
Full
Sep 26
Last Quarter
Oct 4
New
Oct 11
First Quarter
Oct 18
Full

Hourly Weather History & Observations

Time (AKDT) Temp. Windchill Dew Point Humidity Pressure Visibility Wind Dir Wind Speed Gust Speed Precip Events Conditions
12:53 AM 28.0 °F 24.2 °F 25.0 °F 88% 29.60 in 10.0 mi SW 3.5 mph - N/A   Mostly Cloudy
1:53 AM 28.0 °F - 24.1 °F 85% 29.60 in 10.0 mi Calm Calm - N/A   Mostly Cloudy
2:53 AM 28.0 °F - 24.1 °F 85% 29.58 in 10.0 mi Calm Calm - N/A   Scattered Clouds
3:53 AM 27.0 °F - 23.0 °F 85% 29.57 in 10.0 mi Calm Calm - N/A   Partly Cloudy
4:53 AM 25.0 °F - 21.0 °F 85% 29.56 in 10.0 mi Calm Calm - N/A   Partly Cloudy
5:53 AM 27.0 °F - 23.0 °F 85% 29.55 in 7.0 mi Calm Calm - 0.00 in Snow Light Snow
6:21 AM 26.1 °F 20.5 °F 23.0 °F 88% 29.53 in 9.0 mi ENE 4.6 mph - 0.00 in Snow Light Snow
6:53 AM 26.1 °F - 23.0 °F 88% 29.54 in 9.0 mi Calm Calm - 0.00 in Snow Light Snow
7:41 AM 26.1 °F - 23.0 °F 88% 29.51 in 10.0 mi Calm Calm - 0.00 in   Mostly Cloudy
7:53 AM 26.1 °F - 21.9 °F 84% 29.53 in 10.0 mi Calm Calm - 0.00 in Fog Patches of Fog
8:36 AM 26.1 °F 21.9 °F 23.0 °F 88% 29.50 in 2.0 mi NE 3.5 mph - N/A   Mostly Cloudy
8:39 AM 26.1 °F 21.9 °F 23.0 °F 88% 29.50 in 1.5 mi ENE 3.5 mph - N/A   Mostly Cloudy
8:53 AM 26.1 °F - 23.0 °F 88% 29.52 in 1.5 mi Calm Calm - N/A   Mostly Cloudy
9:53 AM 28.0 °F 24.2 °F 25.0 °F 88% 29.51 in 4.0 mi NNE 3.5 mph - N/A   Mostly Cloudy
10:53 AM 28.0 °F 24.2 °F 25.0 °F 88% 29.49 in 6.0 mi ESE 3.5 mph - N/A   Overcast
11:53 AM 28.9 °F - 26.1 °F 89% 29.48 in 6.0 mi Calm Calm - N/A   Overcast
12:53 PM 33.1 °F - 27.0 °F 78% 29.46 in 6.0 mi Calm Calm - N/A   Mostly Cloudy
1:53 PM 33.1 °F - 27.0 °F 78% 29.44 in 10.0 mi Calm Calm - N/A   Mostly Cloudy
2:53 PM 35.1 °F 32.2 °F 26.1 °F 70% 29.41 in 10.0 mi East 3.5 mph - N/A   Mostly Cloudy
3:53 PM 35.1 °F 29.3 °F 25.0 °F 67% 29.38 in 10.0 mi ESE 6.9 mph - N/A   Mostly Cloudy
4:53 PM 36.0 °F 32.1 °F 25.0 °F 64% 29.35 in 10.0 mi East 4.6 mph - 0.00 in Snow Light Snow
5:53 PM 35.1 °F 32.2 °F 26.1 °F 70% 29.33 in 10.0 mi East 3.5 mph - 0.00 in   Mostly Cloudy
6:53 PM 35.1 °F - 26.1 °F 70% 29.32 in 10.0 mi Calm Calm - N/A   Mostly Cloudy
7:53 PM 35.1 °F - 25.0 °F 67% 29.31 in 10.0 mi Calm Calm - N/A   Mostly Cloudy
8:53 PM 34.0 °F 31.0 °F 25.0 °F 70% 29.28 in 10.0 mi ENE 3.5 mph - N/A   Mostly Cloudy
9:53 PM 33.1 °F 30.0 °F 25.0 °F 72% 29.25 in 10.0 mi North 3.5 mph - N/A   Mostly Cloudy
10:53 PM 33.1 °F - 25.0 °F 72% 29.24 in 10.0 mi Calm Calm - N/A   Mostly Cloudy
11:53 PM 33.1 °F - 25.0 °F 72% 29.22 in 10.0 mi Calm Calm - N/A   Mostly Cloudy